Location: DARK SKY Beskydy - Park tmavé oblohy, www.darkskybeskydy.cz
(49.4926°N, 18.5016°E)
Time: 10:31:38
(UTC+01:00)

Vanguard 1 - Visible Passes

Search period start: 25 February 2024 00:00
Search period end: 06 March 2024 00:00
Orbit: 653 x 3826 km, 34.3° (Epoch: 24 February)

Date Brightness Start Highest point End Pass type
(mag) Time Alt. Az. Time Alt. Az. Time Alt. Az.
25 Feb 13.9 00:54:51 10° W 01:33:15 - SSE 00:56:09 13° W visible
25 Feb 12.9 18:13:28 10° SSW 18:24:18 30° SE 18:37:21 14° E visible
25 Feb 12.7 20:31:01 10° SW 20:46:00 48° SSE 20:50:00 45° SE visible
25 Feb 13.1 22:51:52 10° WSW 23:02:38 39° SW 23:02:38 39° SW visible
26 Feb14.001:52:54SSE01:52:54SSE01:15:18Wvisible
26 Feb 12.8 18:32:40 10° SSW 18:44:03 35° SSE 18:56:27 18° E visible
26 Feb 12.7 20:51:02 10° WSW 21:06:16 50° S 21:09:05 48° SSE visible
26 Feb 13.2 23:12:18 10° W 23:21:44 34° WSW 23:21:44 34° WSW visible
27 Feb14.102:12:31SSE02:12:31SSE01:34:23Wvisible
27 Feb 12.7 18:52:10 10° SW 19:03:56 39° SSE 19:15:31 22° ESE visible
27 Feb 12.7 21:11:08 10° WSW 21:26:36 50° S 21:28:09 49° S visible
27 Feb 13.4 23:32:51 10° W 23:40:48 29° WSW 23:40:48 29° WSW visible
28 Feb14.102:32:07S02:32:07S01:53:26Wvisible
28 Feb 12.6 19:11:50 10° SW 19:23:57 43° SSE 19:34:33 26° ESE visible
28 Feb 12.7 21:31:20 10° WSW 21:46:58 49° S 21:47:11 49° S visible
28 Feb 13.5 23:53:32 10° W 23:59:50 24° WSW 23:59:50 24° WSW visible
29 Feb 12.6 19:31:40 10° SW 19:44:03 45° SSE 19:53:33 30° ESE visible
29 Feb 12.8 21:51:36 10° WSW 22:06:11 46° SSW 22:06:11 46° SSW visible
01 Mar 13.7 00:14:26 10° W 00:18:50 19° WSW 00:18:50 19° WSW visible
01 Mar 12.6 19:51:38 10° WSW 20:04:16 47° S 20:12:32 34° SE visible
01 Mar 12.9 22:11:58 10° W 22:25:10 42° SSW 22:25:10 42° SSW visible
02 Mar 13.8 00:35:40 10° W 00:37:49 14° W 00:37:49 14° W visible
02 Mar 12.6 17:53:23 10° SSW 18:02:52 35° SSE 18:18:13 10° E visible
02 Mar 12.6 20:11:41 10° WSW 20:24:32 47° S 20:31:31 37° SE visible
02 Mar 13.0 22:32:27 10° W 22:44:09 37° SW 22:44:09 37° SW visible
03 Mar 12.5 18:13:02 10° SW 18:22:48 39° SSE 18:37:51 12° ESE visible
03 Mar 12.6 20:31:49 10° WSW 20:44:50 46° S 20:50:29 39° SSE visible
03 Mar 13.2 22:53:04 10° W 23:03:08 31° SW 23:03:08 31° SW visible
04 Mar 12.5 18:32:49 10° SW 18:42:51 41° SSE 18:56:50 15° ESE visible
04 Mar 12.7 20:52:02 10° WSW 21:05:09 44° S 21:09:29 40° SSE visible
04 Mar 13.4 23:13:55 10° W 23:22:06 26° WSW 23:22:06 26° WSW visible
05 Mar 12.5 18:52:44 10° WSW 19:02:59 43° S 19:15:49 18° ESE visible
05 Mar 12.8 21:12:21 10° WSW 21:25:27 40° SSW 21:28:27 39° S visible
